Regional Weather Roundup
Issued by NWS

Home | Current Version | Previous Version | Text Only | Print | Product List | Glossary On
Versions: 1 2 3 4 5 6 7 8 9 10 11 12 13 14 15 16 17 18 19 20 21 22 23 24 25 26 27 28 29 30 31 32 33 34 35 36 37 38 39 40 41 42 43 44 45 46 47 48 49 50
000
ASUS45 KBOU 222010
RWRCO

WEATHER ROUNDUP FOR COLORADO
NATIONAL WEATHER SERVICE PUEBLO CO
100 PM MST THU FEB 22 2018

NOTE: "FAIR" INDICATES FEW OR NO CLOUDS BELOW 12000 FEET WITH NO
SIGNIFICANT WEATHER AND/OR OBSTRUCTIONS TO VISIBILITY.

COZ001>005-013-030-031-222100-
...NORTHWEST COLORADO...

CITY           SKY/WX    TMP DP  RH WIND       PRES   REMARKS
CRAIG          CLOUDY    24  13  62 CALM      29.93F
HAYDEN         MOSUNNY   19  12  74 S3        29.92F
MEEKER         LGT SNOW  24  20  84 CALM      29.91S VSB 3/4
RABBIT EARS PA NOT AVBL
STEAMBOAT SPGS PTSUNNY   26  12  55 S3        29.89F
WALDEN         FAIR      25   7  46 W14       29.84F WCI  13
$$

COZ006>008-011-222100-
...WEST CENTRAL VALLEYS...

CITY           SKY/WX    TMP DP  RH WIND       PRES   REMARKS
GRAND JUNCTION PTSUNNY   30  28  92 E10       29.97F WCI  21
MONTROSE       PTSUNNY   31  21  66 CALM      29.97F
EAGLE          CLOUDY    28  21  75 SW16G23   29.91F HAZE    WCI  16
RIFLE          CLOUDY    30  19  63 W9        29.95F WCI  22
DELTA          NOT AVBL
NUCLA          NOT AVBL
$$

COZ017>023-064>068-222100-
...SOUTHWEST COLORADO...

CITY           SKY/WX    TMP DP  RH WIND       PRES   REMARKS
DURANGO        CLOUDY    31  14  49 SW17      30.00F WCI  19
CORTEZ         PTSUNNY   36   5  27 SW12G22   30.01F
PAGOSA SPRINGS PTSUNNY   28  15  58 SW14G26   29.97S HAZE    WCI  17
TELLURIDE      LGT SNOW  20   8  59 SW8G25    29.92S WCI  10
WOLF CREEK PAS CLOUDY     7   5  92 MISG      29.84F
$$

COZ009-010-012-014-032>034-037-058>063-222100-
...CENTRAL COLORADO...

CITY           SKY/WX    TMP DP  RH WIND       PRES   REMARKS
ASPEN          PTSUNNY   27  14  58 N5        29.83F WCI  22
BUENA VISTA    PTSUNNY   29  20  68 E3        29.82F
COPPER MTN     CLOUDY    14   9  79 W7        29.76S HAZE    WCI   4
BERTHOUD PASS  SNOW       5  -6  61 NE7       29.73F VSB 1/4 WCI  -7
COTTONWOOD PAS LGT SNOW  28  19  69 NW7       29.79F WCI  21
GUNNISON       CLOUDY    28  12  51 SW13G21   29.87F WCI  17
KREMMLING      PTSUNNY   34  14  44 CALM      29.86F
LEADVILLE      PTSUNNY   19   4  51 VRB3      29.77F
MONARCH PASS   SNOW      10   5  79 W36G41    29.87F VSB 1/4 WCI -13
SALIDA         CLOUDY    31  20  62 SW8       29.91F WCI  24
SUNLIGHT       SNOW      12   9  85 SW9G20    29.83F VSB 1/2 WCI   0
WILKERSON PASS PTSUNNY   18  14  86 SW14G24   29.78F WCI   4
$$

COZ069>075-222100-
...SAN LUIS VALLEY/SANGRE DE CRISTO MOUNTAINS...

CITY           SKY/WX    TMP DP  RH WIND       PRES   REMARKS
ALAMOSA        SUNNY     35   9  33 SW29G37   29.89F WCI  22
DEL NORTE      FAIR      31  13  46 W24G30    29.88F WCI  17
LA VETA PASS   PTSUNNY   23  14  68 S26G53    29.93S HAZE    WCI   6
SAGUACHE       LGT SNOW  30  14  51 SW8G21    29.85F WCI  23
$$

COZ035-036-038>040-222100-
...NORTHERN COLORADO FRONT RANGE...

CITY           SKY/WX    TMP DP  RH WIND       PRES   REMARKS
DENVER INTL AP PTSUNNY   24  15  68 N7        29.90F WCI  16
DMNS CITY PARK NOT AVBL
AURORA         PTSUNNY   24  15  70 N7        29.89F WCI  16
FRONT RANGE AP PTSUNNY   28  19  69 NW7       29.91S WCI  21
ERIE MUNI ARPT FAIR      24  14  66 N5        29.99F WCI  18
BOULDER MUN AP PTSUNNY   27  14  59 N5        29.92F WCI  21
CENTENNIAL     PTSUNNY   26  15  63 NE3       29.87F
BROOMFIELD     PTSUNNY   25  18  74 N6        29.91  WCI  18
LOVELAND       PTSUNNY   32  16  51 E5        29.95F WCI  27
LONGMONT       CLOUDY    32  15  50 NW5       29.96F WCI  27
$$

COZ041-046-047-076>085-087-088-222100-
...PIKES PEAK/PALMER DIVIDE AND SOUTHERN FOOTHILLS...

CITY           SKY/WX    TMP DP  RH WIND       PRES   REMARKS
COLO. SPRINGS  PTSUNNY   28  19  69 S8        29.88S WCI  20
A. F. ACADEMY  CLOUDY    29  17  61 CALM      29.84F
SCHRIEVER AFB  NOT AVBL
CHEYENNE MTN   NOT AVBL
ELLICOTT         N/A    N/A N/A N/A SW7       29.86F
FALCON         PTSUNNY   29  17  63 S6        29.86S WCI  22
FORT CARSON    MOSUNNY   31  18  59 S8        29.87F WCI  23
LIMON          SUNNY     33  15  47 SE9       29.89F WCI  25
MONUMENT HILL  PTSUNNY   25  18  74 NW7       29.87S WCI  17
CANON CITY     SUNNY     34  19  55 E7        29.86F WCI  28
WALSENBURG     FAIR      45  12  26 SW26G40   29.86F
TRINIDAD       MOSUNNY   46  14  27 W22G29    29.87F
$$

COZ042>045-048>051-090-091-222100-
...NORTHEAST COLORADO...

CITY           SKY/WX    TMP DP  RH WIND       PRES   REMARKS
GREELEY ARPT   PTSUNNY   25  17  72 NW5       29.96F WCI  19
AKRON          CLOUDY    26  16  65 CALM      29.93F
BURLINGTON     SUNNY     29  18  63 S9        29.99F WCI  20
WRAY           FAIR      32  14  47 MISG      30.02F
YUMA           NOT AVBL
STERLING       CLOUDY    27  18  69 S3        29.98F
HOLYOKE        FAIR      34  14  44 S9        30.02F WCI  26
FORT MORGAN    FAIR      31  14  50 SE3       29.95F
$$

COZ086-089-092>099-222100-
...SOUTHEAST COLORADO...

CITY           SKY/WX    TMP DP  RH WIND       PRES   REMARKS
PUEBLO         PTSUNNY   33  19  56 NW10      29.93F WCI  25
LA JUNTA       SUNNY     33  17  51 S5        29.94F WCI  29
LAMAR          SUNNY     47  16  29 SE9G20    29.93F
SPRINGFIELD      N/A     51  18  27 S29G39    29.91F
$$




USA.gov is the U.S. government's official web portal to all federal, state and local government web resources and services.